Location: 相模原市立博物館
(35.5593°N, 139.3931°E)
Time: 09:42:20
(UTC+09:00)

ISS - Visible Passes

Search period start: 21 January 2018 00:00
Search period end: 31 January 2018 00:00
Orbit: 402 x 407 km, 51.6° (Epoch: 21 January)

Date Brightness Start Highest point End Pass type
(mag) Time Alt. Az. Time Alt. Az. Time Alt. Az.
23 Jan -2.6 18:34:47 10° SSW 18:36:58 30° SSE 18:36:58 30° SSE visible
24 Jan -2.0 17:43:25 10° S 17:45:39 17° SE 17:47:19 12° E visible
24 Jan -1.0 19:18:51 10° WSW 19:20:00 19° W 19:20:00 19° W visible
25 Jan -3.8 18:26:18 10° SW 18:29:32 76° NW 18:30:15 50° NNE visible
26 Jan -3.4 17:34:07 10° SSW 17:37:15 47° SE 17:40:24 10° ENE visible
26 Jan -1.1 19:11:35 10° WNW 19:13:04 16° NW 19:13:04 16° NW visible
27 Jan -2.2 18:18:29 10° W 18:21:23 29° NW 18:23:08 18° NNE visible
28 Jan -0.8 19:05:37 10° NNW 19:05:47 10° NNW 19:05:47 10° NNW visible
29 Jan -1.3 18:11:20 10° WNW 18:13:21 15° NNW 18:15:22 10° N visible
